Back to catalog

ONEWEB-0393

AliveCommunicationsPO
NORAD 50473·PAYLOAD·🇬🇧 United Kingdom

Launched Dec 27, 2021 from Baikonur Cosmodrome

Loading…

Next Passes (next 24 hours)

TLE

FreshSource: CelesTrak SupGP

Epoch: Sep 14, 2026, 07:05 UTC

1 50473C 21132E   26257.29532822 -.00002580  00000+0 -66522-2 0  2579
2 50473  87.9201 348.1679 0001942 106.9764 320.5470 13.17649908    15

Track ONEWEB-0393 in real time with AllMySat

Download on the App Store